Flag for Germany Weather past 2 weeks in Achern, Baden-Württemberg, Germany

Now
45 °F

Passing clouds.


Feels Like: 41 °F
Forecast: 35 / 41 °F
Wind: 7 mph from West

Location: Karlsruhe - Baden Wurttemberg

Current Time: Mar 4, 2015 at 4:42:14 PM

Latest Report: Mar 4, 2015 at 4:20 PM


Visibility: N/A

Pressure: 30.36 "Hg

Humidity: 46%

Dew point: 25 °F

Location of AchernLocation

Historic Weather in Achern — Graph

°F

Achern temperature yesterday

Maximum temperature yesterday: 54 °F (at 2:50 PM)
Minimum temperature yesterday: 36 °F (at 12:20 AM)
Average temperature yesterday: 45 °F

Past Weeks' High & Low Weather Summary

 TemperatureHumidityPressure
High57 °F (Feb 20, 1:50 PM)100% (Feb 19, 5:20 AM)30.72 "Hg (Feb 19, 5:20 AM)
Low23 °F (Feb 20, 5:20 AM)31% (Feb 20, 3:50 PM)29.50 "Hg (Feb 21, 6:20 AM)
Average41 °F74%30.02 "Hg
* Reported Feb 17 3:20 PM — Mar 4 3:20 PM, Achern, Weather by CustomWeather, © 2015

Note: Actual official high and low records may vary slightly from our data, if they occured in-between our weather recording intervals... More about our weather records

Advertising

Achern weather history for previous 24 hours

 ConditionsComfort  
Time TempWeatherWind HumidityBarometerVisibility
3:20 PM
Wed, Mar 4
46 °FScattered clouds.10 mph43%30.33 "HgN/A
2:50 PM46 °FScattered clouds.8 mph46%30.33 "HgN/A
2:20 PM45 °FScattered clouds.12 mph49%30.33 "HgN/A
1:50 PM45 °FScattered clouds.13 mph49%30.33 "HgN/A
1:20 PM46 °FScattered clouds.16 mph46%30.36 "HgN/A
12:50 PM45 °FPartly sunny.12 mph53%30.36 "HgN/A
12:20 PM45 °FScattered clouds.13 mph49%30.36 "HgN/A
11:50 AM43 °FPartly sunny.12 mph53%30.36 "HgN/A
11:20 AM43 °FPartly sunny.10 mph57%30.33 "HgN/A
10:50 AM43 °FPartly sunny.10 mph61%30.33 "HgN/A
10:20 AM43 °FPartly sunny.10 mph61%30.33 "HgN/A
9:50 AM43 °FPassing clouds.8 mph66%30.33 "HgN/A
9:20 AM41 °FPassing clouds.7 mph70%30.33 "HgN/A
8:50 AM41 °FPassing clouds.7 mph70%30.33 "HgN/A
8:20 AM39 °FScattered clouds.6 mph75%30.30 "HgN/A
7:50 AM37 °FPartly sunny.6 mph81%30.30 "HgN/A
7:20 AM37 °FPartly sunny.5 mph81%30.30 "HgN/A
6:50 AM39 °FPassing clouds.6 mph75%30.30 "HgN/A
6:20 AM39 °FPassing clouds.6 mph75%30.27 "HgN/A
5:50 AM41 °FPassing clouds.6 mph70%30.27 "HgN/A
5:20 AM41 °FPassing clouds.7 mph70%30.27 "HgN/A
11:50 PM
Tue, Mar 3
41 °FSprinkles. Passing clouds.7 mph81%30.18 "HgN/A
11:20 PM43 °FSprinkles. Partly cloudy.13 mph76%30.18 "HgN/A
10:52 PM46 °FSprinkles. Passing clouds.12 mph66%30.15 "HgN/A
10:20 PM48 °FLight rain. Passing clouds.13 mph54%30.12 "HgN/A
9:50 PM48 °FLight rain. Passing clouds.13 mph54%30.12 "HgN/A
9:20 PM48 °FPassing clouds.13 mph50%30.12 "HgN/A
8:50 PM48 °FPassing clouds.13 mph50%30.12 "HgN/A
8:20 PM48 °FClear.13 mph50%30.12 "Hg10 mi
7:50 PM48 °FClear.13 mph50%30.12 "Hg10 mi
7:20 PM48 °FClear.9 mph50%30.12 "Hg10 mi
6:50 PM48 °FClear.10 mph50%30.09 "Hg10 mi
6:20 PM50 °FClear.12 mph43%30.09 "Hg10 mi
5:50 PM50 °FPassing clouds.9 mph43%30.09 "HgN/A
5:20 PM52 °FPartly sunny.8 mph41%30.09 "HgN/A
4:50 PM52 °FBroken clouds.12 mph41%30.09 "HgN/A
4:20 PM52 °FSunny.13 mph41%30.09 "Hg10 mi
Weather by CustomWeather, © 2015

See weather overviewHow to use our weather pages